Zurück zum Katalog

THORAD DELTA 1 DEB

AktivSSO
NORAD 42608·DEBRIS·🇺🇸 United States

Gestartet Nov 15, 1974 von Vandenberg Space Force Base

Loading…

Nächste Überflüge (nächste 24 Stunden)

TLE

AktuellSource: Space-Track

Epoche: Sep 11, 2026, 22:29 UTC

1 42608U 74089FZ  26254.93735294 -.00000034  00000-0  98409-4 0  9991
2 42608 102.5486 244.0031 0074051  62.0031 298.8491 12.28118100574079

Verfolge THORAD DELTA 1 DEB in Echtzeit mit AllMySat

Download on the App Store